Tracking 18850 objects as of 22-Nov-2017
HD Live streaming from Space Station
objects crossing your sky now

COSMOS 2490

Track COSMOS 2490 now!
10-day predictions
COSMOS 2490 is classified as:


NORAD ID: 39485
Int'l Code: 2013-076C
Perigee: 1,483.4 km
Apogee: 1,519.6 km
Inclination: 82.5 °
Period: 115.9 minutes
Semi major axis: 7872 km
RCS: Unknown
Launch date: December 25, 2013
Source: Commonwealth of Independent States (former USSR) (CIS)
Launch site: PLESETSK MISSILE AND SPACE COMPLEX (PKMTR)

COSMOS 2488 is a Russian military satellite apparently designed to relay messages between military users posted in remote areas.
aabbcc
Your satellite tracking list
Your tracking list is empty




NASA's NSSDC Master Catalog

Two Line Element Set (TLE):
1 39485U 13076C   17326.45803562  .00000043  00000-0  23683-3 0  9990
2 39485  82.4815 318.3975 0023016  89.6515 270.7188 12.42887808177423
Source of the keplerian elements: AFSPC